Wind_Speed
19 19 19 20 20 20 19 20 19 19 18 19 19 19 20 20 20 20 20 20 20 20 21 21 21 21 22 23 23 23 24 24 23 23 23 22 21 21
20 20 20 21 21 20 20 19 19 19 19 20 20 21 21 21 22 22 22 21 21 21 22 22 22 22 22 23 24 24 25 25 25 24 23 23 22 22
21 21 21 22 22 21 20 20 20 21 21 21 21 21 22 22 23 23 23 23 23 23 23 23 23 23 23 23 24 24 25 25 26 26 25 24 24 24
22 22 22 22 22 22 22 22 22 22 22 22 22 22 22 23 23 24 24 23 24 24 25 24 24 24 24 24 24 24 25 25 25 26 26 26 25 25
23 23 23 23 23 23 23 23 23 23 23 23 23 23 23 23 24 25 25 25 25 25 26 26 26 26 26 26 25 25 25 25 26 26 27 27 27 27
25 25 25 24 24 24 23 23 23 24 24 25 25 25 25 25 25 25 25 25 25 26 27 27 27 27 27 27 26 26 27 27 27 27 27 28 29 29
26 26 26 26 26 25 25 24 24 24 25 26 26 26 27 27 27 27 27 27 27 27 27 28 28 28 28 28 28 27 27 27 27 28 28 28 29 29
27 27 27 26 26 26 26 26 26 25 26 27 27 27 27 27 28 28 28 28 27 27 27 28 28 28 29 29 28 27 26 27 27 27 28 28 28 28
28 28 27 27 27 27 26 26 27 27 27 27 27 28 28 29 29 29 28 28 28 28 28 28 29 29 29 29 29 28 27 27 27 27 27 27 27 28
28 28 28 29 28 28 28 28 28 28 28 28 28 28 29 29 30 30 30 29 29 29 29 29 29 30 29 29 29 29 28 27 27 27 27 26 26 27
29 29 29 30 30 29 29 29 29 29 28 28 29 29 30 30 30 30 30 30 30 30 30 30 30 30 29 29 28 28 28 27 27 27 27 27 27 27
28 29 30 30 30 30 30 30 30 30 30 30 30 29 30 30 30 31 31 30 31 31 31 31 31 30 30 29 29 28 28 28 28 27 27 27 27 27
30 30 31 31 31 30 30 30 30 31 31 31 31 30 29 29 30 30 30 31 31 31 31 32 32 31 31 31 31 30 29 29 29 28 28 28 28 28
31 31 31 31 31 30 29 29 30 31 32 32 31 31 30 30 30 31 31 31 31 31 31 32 31 31 31 32 31 31 31 30 30 29 29 29 29 29
31 31 31 31 31 30 30 30 31 31 31 31 31 31 31 31 32 32 32 32 32 31 31 31 30 30 31 31 31 31 31 30 30 30 30 29 29 29
32 32 32 31 31 31 31 31 31 31 30 30 30 31 31 31 32 32 32 32 31 31 30 31 31 30 30 31 31 31 31 30 30 30 30 30 30 30
34 33 33 33 32 32 32 32 31 31 30 30 30 31 31 32 32 32 32 32 31 30 30 31 31 31 30 30 30 30 30 29 30 30 31 31 31 30
34 34 34 33 33 33 32 32 31 31 30 31 31 32 31 31 31 31 31 31 31 31 31 32 31 30 30 29 30 30 30 30 29 30 31 31 31 31
34 33 33 33 33 33 32 32 32 32 32 32 32 32 31 31 31 30 30 29 29 29 30 30 30 30 29 29 30 30 30 30 30 30 30 31 31 31
35 34 34 34 33 33 33 33 33 32 31 31 31 31 30 29 29 28 28 28 28 28 28 28 28 28 29 29 29 30 31 31 31 30 30 31 31 31
34 34 34 34 34 33 33 33 33 32 31 31 29 29 28 28 27 27 27 27 27 27 27 27 27 28 29 29 29 29 30 30 30 30 31 31 31 31
33 33 33 34 34 34 33 32 31 31 30 29 28 27 27 27 27 27 26 26 26 26 26 26 27 27 27 28 28 29 29 29 30 30 30 31 30 30
32 32 32 32 31 32 32 31 31 30 30 29 28 28 28 28 27 27 26 26 27 27 27 27 27 26 26 26 26 26 27 27 28 28 28 28 29 29
Wind_Direction
286 286 286 286 286 285 284 281 278 274 270 269 270 267 267 267 267 265 264 264 263 264 265 266 267 267 265 264 263 263 264 263 263 263 261 260 259 261
284 284 285 286 286 286 284 282 278 275 273 271 270 269 268 266 268 268 267 265 265 267 268 269 270 270 268 266 265 264 264 263 263 262 260 259 258 259
284 285 285 285 284 283 282 281 278 276 272 271 271 270 269 269 270 268 267 266 266 267 268 269 269 270 269 267 266 266 266 265 263 261 259 259 259 259
283 283 285 284 283 282 280 279 278 276 272 271 270 270 271 270 269 268 268 267 266 266 267 268 269 269 268 267 269 268 268 266 264 262 260 258 258 258
280 281 283 283 282 281 280 279 277 275 272 271 270 270 272 271 271 270 268 267 267 266 266 267 268 268 268 269 270 269 269 266 264 263 262 260 259 258
279 280 282 281 281 280 278 278 278 276 273 271 270 270 272 272 272 271 269 268 267 267 267 267 267 268 269 269 269 269 267 267 266 265 264 262 260 257
277 279 280 280 279 280 279 278 278 277 274 273 271 271 271 271 271 271 270 269 268 268 268 267 268 269 269 269 268 268 267 267 267 267 265 263 259 257
276 276 276 277 278 278 278 278 278 277 275 274 274 274 273 272 272 271 269 268 269 268 267 267 268 269 269 269 269 267 266 266 266 266 265 264 259 256
274 275 275 276 277 278 278 278 278 277 277 276 275 275 274 273 273 272 271 268 268 268 268 268 268 268 269 268 266 265 266 266 266 266 264 263 261 258
274 275 275 275 275 276 277 278 279 278 277 276 276 275 274 273 274 273 272 270 268 268 269 269 268 268 269 267 266 266 266 266 265 264 263 262 260 258
274 274 274 275 276 276 277 278 278 279 278 278 277 276 276 275 274 273 272 271 271 270 270 269 268 267 266 266 266 267 266 266 265 264 263 263 262 258
273 274 274 274 276 277 277 277 277 277 278 278 278 277 277 276 275 274 273 273 273 272 271 269 267 265 263 264 266 267 266 265 265 264 264 264 264 262
272 273 274 275 276 277 277 277 277 277 277 277 277 277 277 277 275 274 274 274 275 273 272 270 268 265 263 263 264 266 265 265 264 264 264 264 264 263
271 273 274 275 275 277 276 276 277 276 277 276 277 277 276 276 275 274 274 275 275 274 272 271 268 265 263 263 264 264 264 263 264 264 263 263 264 264
270 272 273 274 275 276 276 277 276 277 278 278 277 277 276 276 275 275 274 273 274 273 272 271 269 266 264 263 263 263 263 262 261 262 263 264 264 263
270 271 273 273 274 275 276 276 277 277 277 278 279 277 276 277 276 275 273 272 272 271 271 271 270 268 266 265 265 263 263 262 261 261 262 263 263 264
271 271 273 273 273 274 276 277 277 277 277 278 278 277 276 277 276 275 273 271 270 269 270 270 269 268 266 265 265 264 264 263 263 261 261 262 262 263
270 271 271 272 274 274 276 275 275 275 275 276 277 277 276 276 275 274 272 271 270 269 268 268 267 266 265 264 264 264 263 263 264 263 262 261 261 263
269 270 271 272 273 273 274 276 274 275 276 276 277 276 275 275 275 274 272 271 270 268 267 267 266 264 263 263 263 264 264 265 265 264 262 261 261 261
268 269 270 272 272 272 274 275 274 274 275 275 275 275 274 274 275 275 274 271 269 268 267 266 266 264 262 262 263 264 264 264 265 264 263 261 261 262
269 270 270 271 271 272 272 273 273 273 273 272 274 275 273 272 273 274 274 272 270 268 267 267 266 264 262 262 263 263 264 263 263 263 263 263 262 262
271 271 271 270 270 271 270 270 270 271 271 271 272 273 272 272 274 275 274 271 270 269 267 268 267 265 265 264 263 263 263 263 263 263 264 264 263 262
271 271 272 271 270 269 267 268 269 269 269 269 270 271 272 272 273 274 273 271 270 268 268 268 268 266 265 264 264 263 264 264 264 264 264 263 262 261
Height
5785 5784 5783 5782 5781 5780 5779 5779 5779 5779 5779 5778 5779 5779 5779 5780 5780 5780 5781 5782 5782 5783 5783 5783 5784 5784 5784 5785 5785 5786 5787 5788 5789 5790 5791 5792 5793 5794
5780 5779 5778 5777 5776 5775 5774 5773 5773 5773 5773 5773 5773 5773 5773 5774 5774 5774 5775 5776 5776 5776 5777 5777 5777 5778 5778 5778 5779 5779 5780 5781 5782 5783 5784 5786 5787 5788
5774 5773 5772 5771 5770 5769 5769 5768 5767 5767 5767 5767 5767 5767 5767 5768 5768 5768 5768 5769 5770 5770 5770 5771 5771 5771 5771 5772 5772 5772 5773 5773 5774 5776 5777 5778 5780 5782
5768 5767 5766 5765 5764 5763 5763 5762 5761 5761 5761 5761 5761 5761 5761 5761 5761 5761 5762 5762 5763 5763 5763 5763 5764 5764 5764 5765 5765 5765 5765 5766 5767 5768 5769 5771 5773 5774
5762 5761 5760 5759 5758 5757 5756 5756 5755 5754 5754 5754 5754 5754 5754 5754 5754 5754 5755 5755 5755 5755 5756 5756 5756 5757 5757 5757 5757 5758 5758 5759 5759 5760 5761 5763 5764 5766
5755 5754 5753 5753 5752 5751 5750 5749 5749 5748 5747 5747 5747 5747 5747 5747 5747 5747 5747 5747 5747 5747 5748 5748 5748 5749 5749 5749 5749 5750 5750 5750 5751 5752 5752 5753 5755 5757
5748 5747 5746 5745 5745 5744 5743 5743 5742 5741 5741 5740 5740 5740 5740 5740 5740 5740 5740 5739 5739 5739 5740 5740 5740 5740 5740 5740 5740 5741 5741 5742 5742 5743 5743 5744 5745 5747
5740 5740 5739 5738 5737 5737 5736 5735 5735 5734 5734 5733 5733 5733 5732 5732 5732 5731 5731 5731 5732 5732 5731 5731 5731 5732 5731 5731 5732 5732 5732 5733 5733 5734 5734 5735 5736 5738
5732 5731 5731 5730 5730 5729 5728 5728 5727 5726 5726 5726 5725 5725 5724 5724 5724 5723 5723 5723 5723 5723 5723 5723 5722 5723 5723 5722 5722 5723 5723 5724 5724 5725 5725 5726 5727 5729
5724 5723 5723 5722 5722 5721 5720 5720 5719 5718 5718 5718 5717 5717 5716 5715 5715 5714 5714 5714 5714 5714 5713 5714 5713 5713 5713 5713 5714 5714 5715 5715 5716 5716 5717 5718 5719 5721
5715 5714 5714 5714 5713 5712 5712 5711 5711 5710 5709 5708 5708 5708 5707 5706 5705 5705 5705 5705 5705 5705 5704 5704 5704 5704 5704 5704 5705 5705 5706 5707 5707 5708 5709 5709 5710 5712
5706 5706 5705 5705 5704 5703 5703 5702 5702 5701 5700 5699 5699 5698 5697 5697 5696 5696 5695 5695 5695 5695 5695 5694 5694 5695 5696 5696 5696 5697 5697 5698 5699 5699 5700 5701 5702 5703
5697 5697 5696 5695 5695 5694 5694 5693 5692 5692 5691 5690 5689 5689 5688 5687 5686 5686 5686 5686 5685 5685 5685 5684 5684 5685 5686 5687 5688 5688 5689 5689 5690 5691 5692 5693 5693 5694
5688 5687 5687 5686 5686 5685 5684 5684 5683 5682 5681 5680 5680 5679 5678 5678 5677 5676 5676 5675 5675 5675 5674 5674 5674 5675 5676 5677 5678 5679 5679 5680 5681 5682 5683 5684 5684 5685
5678 5678 5677 5677 5676 5675 5675 5674 5673 5672 5671 5671 5670 5669 5668 5667 5667 5666 5665 5665 5664 5664 5664 5664 5664 5665 5665 5666 5668 5668 5669 5670 5672 5673 5674 5674 5675 5675
5668 5667 5667 5667 5666 5666 5665 5664 5663 5663 5662 5661 5660 5659 5658 5657 5656 5655 5655 5654 5654 5654 5654 5654 5654 5654 5655 5656 5657 5658 5659 5661 5662 5663 5664 5665 5666 5666
5657 5657 5657 5656 5656 5656 5655 5654 5654 5653 5652 5651 5650 5649 5648 5647 5646 5645 5645 5644 5644 5644 5644 5644 5644 5644 5645 5646 5647 5648 5649 5651 5652 5654 5655 5656 5657 5657
5646 5646 5646 5646 5646 5645 5645 5644 5643 5643 5642 5641 5640 5639 5638 5637 5636 5635 5634 5634 5634 5633 5634 5634 5634 5635 5636 5636 5638 5639 5640 5641 5643 5644 5645 5646 5648 5648
5634 5635 5635 5635 5635 5634 5634 5633 5633 5632 5632 5631 5630 5629 5628 5628 5627 5626 5625 5624 5624 5624 5624 5624 5624 5625 5626 5628 5629 5629 5631 5632 5633 5634 5636 5637 5638 5639
5623 5623 5623 5624 5623 5623 5623 5623 5622 5622 5621 5620 5620 5619 5618 5618 5617 5616 5615 5615 5615 5614 5614 5615 5615 5615 5617 5618 5619 5620 5621 5622 5623 5624 5626 5627 5628 5629
5611 5611 5612 5612 5612 5612 5612 5612 5611 5611 5611 5610 5610 5609 5609 5608 5608 5607 5606 5606 5606 5606 5606 5606 5606 5607 5607 5609 5610 5611 5612 5612 5613 5614 5616 5617 5618 5619
5600 5600 5600 5601 5601 5601 5601 5601 5601 5601 5601 5600 5600 5600 5600 5599 5599 5598 5598 5597 5597 5597 5597 5598 5598 5598 5599 5600 5601 5602 5603 5603 5604 5604 5605 5607 5607 5608
5589 5589 5589 5589 5589 5590 5590 5590 5591 5591 5591 5591 5591 5591 5591 5590 5590 5589 5589 5589 5589 5589 5589 5589 5589 5590 5591 5591 5592 5593 5594 5594 5595 5595 5596 5597 5598 5599